Flag for Canada Weather past 2 weeks in Lethbridge, Alberta, Canada

Now
16 °F

Light snow. More clouds than sun.


Feels Like: 1 °F
Forecast: 8 / 16 °F
Wind: 14 mph from Northwest

Location: Lethbridge

Current Time: Feb 27, 2015 at 10:08:39 AM

Latest Report: Feb 27, 2015 at 9:00 AM


Visibility: 15 mi

Pressure: 30.26 "Hg

Humidity: 79%

Dew point: 10 °F

Location of LethbridgeLocation

Historic Weather in Lethbridge — Graph

°F

Lethbridge temperature yesterday

Maximum temperature yesterday: 19 °F (at 3:00 PM)
Minimum temperature yesterday: 5 °F (at 8:00 AM)
Average temperature yesterday: 12 °F

Past Weeks' High & Low Weather Summary

 TemperatureHumidityPressure
High61 °F (Feb 13, 1:00 PM)100% (Feb 14, 3:00 AM)30.77 "Hg (Feb 14, 3:00 AM)
Low-4 °F (Feb 22, 3:00 AM)23% (Feb 19, 2:00 PM)29.86 "Hg (Feb 19, 12:00 AM)
Average31 °F71%30.28 "Hg
* Reported Feb 12 8:00 AM — Feb 27 8:00 AM, Lethbridge, Weather by CustomWeather, © 2015

Note: Actual official high and low records may vary slightly from our data, if they occured in-between our weather recording intervals... More about our weather records

Advertising

Lethbridge weather history for previous 24 hours

 ConditionsComfort  
Time TempWeatherWind HumidityBarometerVisibility
8:00 AM
Fri, Feb 27
14 °FLight snow. Mostly cloudy.12 mph85%30.24 "Hg10 mi
7:00 AM12 °FOvercast.14 mph92%30.23 "Hg15 mi
6:00 AM12 °FOvercast.13 mph85%30.22 "Hg15 mi
5:00 AM12 °FOvercast.12 mph85%30.20 "Hg9 mi
4:00 AM12 °FOvercast.13 mph85%30.18 "Hg9 mi
3:00 AM10 °FPassing clouds.12 mph85%30.17 "Hg9 mi
2:00 AM10 °FPassing clouds.8 mph85%30.16 "Hg9 mi
1:00 AM10 °FClear.9 mph85%30.16 "Hg9 mi
12:00 AM10 °FClear.8 mph85%30.18 "Hg9 mi
11:00 PM
Thu, Feb 26
12 °FClear.9 mph85%30.19 "Hg9 mi
10:00 PM12 °FPassing clouds.5 mph85%30.22 "Hg15 mi
9:00 PM14 °FPassing clouds.6 mph79%30.25 "Hg15 mi
8:00 PM14 °FPassing clouds.10 mph79%30.28 "Hg15 mi
7:00 PM12 °FPassing clouds.8 mph85%30.31 "Hg40 mi
6:00 PM14 °FPartly sunny.8 mph79%30.33 "Hg40 mi
5:00 PM18 °FScattered clouds.14 mph73%30.35 "Hg40 mi
4:00 PM18 °FScattered clouds.17 mph73%30.37 "Hg40 mi
3:00 PM19 °FSnow flurries. Partly sunny.15 mph73%30.40 "Hg30 mi
2:00 PM18 °FLight snow. Partly sunny.14 mph73%30.44 "Hg20 mi
1:00 PM18 °FLight snow. Partly sunny.13 mph79%30.47 "Hg30 mi
12:52 PM18 °FPartly sunny.9 mph73%30.47 "Hg30 mi
12:00 PM16 °FScattered clouds.10 mph73%30.50 "Hg40 mi
11:00 AM14 °FLight snow. Partly sunny.9 mph79%30.53 "Hg30 mi
10:00 AM12 °FPassing clouds.9 mph79%30.56 "Hg40 mi
Weather by CustomWeather, © 2015

See weather overviewHow to use our weather pages